TELKOM 4 (MERAH PUTIH)

Last updated on Sun Jun 21 2026 00:03:07 GMT+0000 (Coordinated Universal Time)

1 43587U 18064A 26171.41343206 .00000000 00000+0 00000+0 0 9994 2 43587 0.0169 12.0761 0001515 103.4112 49.9772 1.00269652 28915
UTC large
Height (km)
Speed (km/s)
/
Latitude / Longitude
Inclination (degrees)
Orbital Period (minutes)
Azimuth
Elevation
Range (km)
Doppler Factor

Next 0 passes for location: London (51.5072 / 0.1276)

No passes found over London.
TELKOM 4 (MERAH PUTIH)